Preview of NWS' New Version of Forecast
This preview is not operational and should not be used for support decisions.
Latest weather observations around

Odessa, Odessa-Schlemeyer Field (KODO)

Using English Units (Switch to International System of Units)
Date/ Time (CDT) Wind (mph) Vis. (mi) Weather Sky Cond. Temp (°F) Rel. Humidity Wind Chill (°F) Heat Index (°F) Pressure Precip. (in)
Air Dwpt 6 hour Altimeter (inHg) Sea level (inHg) 1 hr 3 hr 6 hr
Max Min
Jun 20 03:53 S 8 10 Clear CLR 69 34     27%     29.83 29.67      
Jun 20 02:53 SW 3 10 Clear CLR 75 30     19%   73 29.83 29.66      
Jun 20 01:53 WNW 7 10 Clear CLR 75 31     20%   73 29.83 29.66      
Jun 20 00:53 WSW 5 10 Clear CLR 76 37     24%   74 29.84 29.67      
Jun 19 23:53 W 6 10 Clear CLR 80 37     21%   79 29.83 29.67      
Jun 19 22:53 WSW 3 10 Clear CLR 83 38     20%   81 29.83 29.67      
Jun 19 21:53 Calm 10 Clear CLR 89 35     15%   85 29.81 29.64      
Jun 19 20:53 W 3 10 Clear CLR 93 34     13%   88 29.8 29.64      
Jun 19 19:53 W 13 10 Clear CLR 97 30     9%   91 29.79 29.63      
Jun 19 18:53 W 9 10 Clear CLR 99 29     9%   93 29.8 29.64      
Jun 19 17:53 WNW 14 10 Clear CLR 102 29     8%   95 29.82 29.65      
Jun 19 16:53 W 15 10 Clear CLR 101 33     9%   95 29.83 29.67      
Jun 19 15:53 WNW 13 10 Clear CLR 100 33     10%   94 29.84 29.68      
Jun 19 14:53 W 11 10 Clear CLR 100 37     11%   95 29.86 29.7      
Jun 19 13:53 NW 9 10 Clear CLR 98 43     15%   94 29.89 29.72      
Jun 19 12:53 W 11 10 Clear CLR 95 46     19%   91 29.9 29.74      
Jun 19 11:53 NW 11 10 Clear CLR 92 50     24%   89 29.91 29.75      
Jun 19 10:53 W 16 10 Clear CLR 87 54     32%   85 29.91 29.75      
Jun 19 09:53 WSW 13 10 Clear CLR 84 57     40%   83 29.92 29.76      
Jun 19 08:53 SSW 10 10 Clear CLR 75 60     60%   75 29.91 29.76      
Jun 19 07:53 S 9 10 Clear CLR 70 59     68%     29.9 29.75      
Jun 19 06:53 S 9 10 Clear CLR 66 59     78%     29.89 29.75      
Jun 19 05:53 S 9 10 Clear CLR 67 59     76%     29.89 29.75      
Jun 19 04:53 SSE 11 10 Clear CLR 68 57     68%     29.89 29.74      
Jun 19 03:53 ESE 7 10 Clear CLR 69 57     65%     29.92 29.77      
Jun 19 02:53 ENE 11 10 Clear CLR 69 56     63%     29.94 29.79      
Jun 19 01:53 SSW 7 10 Clear CLR 71 56     59%   71 29.94 29.79      
Jun 19 00:53 S 9 10 Clear CLR 72 56     57%   72 29.95 29.8      
Jun 18 23:53 S 8 10 Clear CLR 73 56     55%   73 29.94 29.8      
Jun 18 22:53 S 17 10 Clear CLR 76 54     47%   75 29.94 29.79      
Jun 18 21:53 SSW 17 10 Clear CLR 79 48     34%   78 29.91 29.77      
Jun 18 20:53 S 17 10 Clear CLR 84 44     25%   82 29.89 29.74      
Jun 18 19:53 S 18 10 Clear CLR 87 43     21%   84 29.88 29.74      
Jun 18 18:53 SSW 21 9 Mostly Clear and Windy FEW011 90 46     22%   87 29.88 29.73      
Jun 18 17:53 S 21 10 Clear and Windy CLR 92 58     32%   91 29.91 29.76      
Jun 18 16:53 S 22 10 Clear and Windy CLR 96 56     26%   95 29.92 29.77      
Jun 18 15:53 SSW 16 10 Clear CLR 96 57     27%   95 29.94 29.78      
Jun 18 14:53 S 13 10 Clear CLR 95 60     31%   95 29.95 29.8      
Jun 18 13:53 S 16 8 Clear CLR 89 62     41%   90 29.99 29.84      
Jun 18 12:53 S 10 9 Partly Cloudy SCT038 86 65     50%   88 30.02 29.86      
Jun 18 11:53 SSE 14 8 Mostly Clear FEW030 83 65     55%   85 30.02 29.88      
Jun 18 11:02 S 15 7 Partly Cloudy SCT023 81 66     61%   83 30.02        
Jun 18 10:53 S 14 6 Haze BKN023 79 65     62%   80 30.02 29.88      
Jun 18 09:53 SSE 16 7 Cloudy OVC018 77 65     66%   78 30.03 29.88      
Jun 18 09:40 S 14 7 Mostly Cloudy BKN018 76 65     69%   76 30.03        
Jun 18 08:53 ESE 11 10 Clear CLR 73 62     68%   73 30.03 29.88      
Jun 18 07:53 ESE 13 10 Clear CLR 69 60     73%     30.01 29.87      
Jun 18 06:53 E 13 10 Mostly Clear FEW020 68 57     68%     30.01 29.87      
Jun 18 05:53 E 13 10 Clear CLR 68 56     65%     30.01 29.87      
Jun 18 05:37 ENE 16 10 Partly Cloudy SCT022 68 56     65%     30.02        
Jun 18 05:23 ENE 15 10 Mostly Cloudy BKN022 69 57     65%     30.03        
Jun 18 04:53 ENE 16 10 Mostly Cloudy SCT019 SCT024 BKN033 70 57     63%     30.02 29.87      
Jun 18 03:53 ENE 14 9 Mostly Cloudy BKN021 BKN026 73 67     81%   74 30.02 29.86      
Jun 18 02:53 E 10 9 Clear CLR 72 66     82%   73 29.99 29.84      
Jun 18 01:53 NE 10 9 Clear CLR 73 65     76%   74 29.98 29.83      
Jun 18 00:53 SSE 11 10 Clear CLR 77 66     69%   78 29.95 29.8      
Jun 17 23:53 S 13 10 Clear CLR 78 66     67%   79 29.97 29.82      
Jun 17 22:53 SSE 17 10 Clear CLR 80 65     60%   82 29.97 29.82      
Jun 17 21:53 SSE 13 10 Clear CLR 83 64     53%   84 29.95 29.8      
Jun 17 20:53 S 20 9 Clear and Windy CLR 85 64     50%   86 29.92 29.78      
Jun 17 19:53 SSE 17 9 Clear CLR 88 62     42%   88 29.91 29.76      
Jun 17 19:24 SE 23 9 Partly Cloudy and Windy SCT055 89 63     42%   90 29.91        
Jun 17 19:09 SSE 18 9 Thunderstorms BKN055 89 63     42%   90 29.92        
Jun 17 18:53 SE 21 9 Partly Cloudy and Windy SCT055 88 63     43%   89 29.91 29.77      
Jun 17 18:50 SE 20 9 Mostly Clear and Windy FEW055 90 63     41%   90 29.91        
Jun 17 18:35 S 20 9 Thunderstorms FEW060 89 61     39%   89 29.9        
Jun 17 18:26 S 21 9 Mostly Clear and Windy FEW060 89 61     39%   89 29.9        
Jun 17 18:01 SE 20 9 Thunderstorms FEW065 90 61     38%   90 29.91        
Jun 17 17:53 SE 21 9 Mostly Clear and Windy FEW065 89 60     38%   89 29.92 29.77      
Jun 17 16:53 SSE 11 9 Partly Cloudy FEW060 SCT090 92 61     36%   92 29.94 29.79      
Jun 17 15:53 SSE 15 8 Clear CLR 93 61     35%   93 29.95 29.8      
Jun 17 14:53 SE 13 9 Clear CLR 90 61     38%   90 29.98 29.82      
Jun 17 13:53 ESE 10 9 Clear CLR 87 63     45%   88 30 29.85      
Jun 17 12:53 SSE 5 9 Mostly Clear FEW037 85 63     48%   86 30.02 29.88      
Jun 17 11:53 SSE 10 9 Cloudy OVC032 82 63     53%   83 30.03 29.88      
Jun 17 10:53 SSE 11 9 Partly Cloudy SCT024 77 64     64%   77 30.04 29.9      
Jun 17 10:50 SSE 10 9 Partly Cloudy SCT022 77 64     65%   77 30.04        
Jun 17 10:43 SSE 13 9 Mostly Cloudy BKN022 BKN032 77 64     64%   77 30.04        
Jun 17 09:53 ESE 10 9 Cloudy OVC030 75 64     69%   75 30.03 29.89      
Jun 17 09:34 ESE 14 9 Cloudy OVC030 73 64     73%   73 30.03        
Jun 17 08:53 ESE 15 9 Cloudy OVC028 71 63     76%   71 30.03 29.89      
Jun 17 08:30 ESE 14 9 Cloudy OVC028 72 63     73%   72 30.02        
Jun 17 07:53 E 14 9 Clear CLR 71 62     73%   71 30.01 29.87      
Jun 17 06:53 E 7 9 Mostly Clear FEW035 69 63     81%     29.98 29.83      
Jun 17 05:53 E 9 10 Partly Cloudy SCT044 70 63     78%     29.98 29.83      
Jun 17 04:53 E 15 10 Mostly Cloudy BKN036 72 63     73%   72 29.96 29.81      
May 15 01:53 SSE 13 9 Mostly Clear FEW014 71 66     84%   72 29.98 29.83      
May 14 19:49 SSW 18 10 Clear   88 39     18%   84 29.87        
May 14 12:53 Calm 10 Mostly Clear FEW120 82 50     33%   81 29.99 29.85      
May 13 17:53 SSE 11 10 Clear CLR 94 44     18%   90 29.89 29.73      
May 12 18:53 S 13 10 Clear CLR 96 33     11%   91 29.85 29.69      
May 12 16:53 S 13 10 Clear CLR 96 31     10%   90 29.87 29.71      
May 12 00:53 S 20 10 Clear and Windy CLR 78 54     43%   78 29.86 29.69      
May 11 20:53 S 21 10 Clear and Windy CLR 85 54     35%   83 29.8 29.65      
May 11 07:53 S 20 10 Clear and Windy CLR 70 54     57%     29.88 29.73      
Jun 11 22:53 S 17 10 Clear CLR 83 66     57%   85 29.89 29.74      
Jun 11 01:53 S 17 10 Clear CLR 80 61     52%   81 29.86 29.69      
Jun 10 20:53 S 20 10 Clear and Windy CLR 90 58     34%   89 29.79 29.64      
Jun 10 04:53 S 15 10 Clear CLR 77 57     50%   77 29.82 29.65      
Jun 09 16:53 ESE 6 10 Clear CLR 97 50     21%   94 29.82 29.66      
Jun 09 03:53 NNE 6 10 Mostly Clear FEW090 73 54     51%   72 29.99 29.85      
Jun 08 18:53 SSW 13 10 Clear   88 52     29%   86 29.91 29.76      
Jun 08 12:53 S 6 10 Mostly Cloudy BKN110 83 56     40%   82 30.03 29.88      
Jun 08 03:53 S 3 10 Clear CLR 73 55     53%   73 30.05 29.9      
Jun 07 23:53 ESE 13 10 Clear CLR 80 55     42%   80 30.06 29.91      
Jun 07 14:53 Calm 10 Clear CLR 88 50     27%   85 30.08 29.94      
Jun 07 10:53 SSW 13 10 Clear CLR 81 54     39%   81 30.13 29.98      
Jun 06 10:53 ENE 8 10 Mostly Clear FEW033 80 62     54%   81 30.09 29.95      
Jun 05 20:53 ENE 7 10 Clear CLR 81 57     44%   81 29.91 29.77